Location: Betzi
(47.2343°N, 9.5260°E)
Time: 15:58:39
(UTC+00:00)

USA 307 - Pass Details

Date: 27 May 2022
Orbit: 552 x 554 km, 54.0° (Epoch: 17 June)

Event Time Altitude Azimuth Distance (km) Brightness Sun altitude
Exits shadow 00:08:03 61° 163° (SSE) 631 2.8 -20.6°
Maximum altitude 00:08:17 63° 144° (SE) 624 2.8 -20.6°
Drops below altitude 10° 00:12:25 10° 63° (ENE) 1,843 6.0 -20.5°
Sets 00:14:41 0° 60° (ENE) 2,742 7.0 -20.4°
